星链-33644 (STARLINK-33644)

导读

STARLINK-33644是美国SpaceX公司星链(Starlink)星座的卫星,于2025年3月31日发射。星链星座旨在构建全球低轨宽带互联网系统,为网络基础设施匮乏区域提供高速低延迟互联网服务。该星采用平板设计,配备氪工质霍尔推进器,具备自主避撞能力,寿命末期会主动离轨坠入大气层销毁,降低空间碎片风险。

基本信息
目录编号:
63414
目录名称:
STARLINK-33644
国际标识:
2025-065R
轨道中心:
EARTH
卫星名称:
星链-33644
卫星全名:
星链-33644 (STARLINK-33644)
卫星状态:
在轨 (已飞行522 天)
发射日期:
2025-03-31 UTC
国别 :
美国 (US)
星等 :
--
轨道信息
数据来源 国际轨道数据
星历时间: 2026-09-04T12:35:08+0800
9小时前
查看轨道信息
半长轴: 6861.204km
偏心率: 0.0000938
轨道倾角: 43.001°
近地点辐角 270.133°
升交点赤经 179.444°
平近点角 89.942°
近地点: 482.423km
远地点: 483.711km
周期: 94.267分钟
每日圈数: 15.275742
详细信息
固有亮度:
5
最大亮度:
2.5
卫星平台:
Starlink V1.0
覆盖范围:
全球
运营商:
太空探索技术公司
运营商所在国:
美国
制造商(研发单位):
太空探索技术公司
制造商所在国:
美国
使用方式:
暂无
卫星简介
Starlink 计划是 SpaceX 推出的全球卫星互联网项目,通过发射低轨道卫星,为全球尤其是偏远地区提供高速、低延迟的互联网服务。自 2019 年起,Starlink 已部署数千颗卫星,旨在缩小全球数字鸿沟,推动互联网普及。该项目还为军事、航空等行业提供通信支持,带来广泛经济效益。
2D轨道图
3D轨道图
轨道高度分析图
轨道倾角分析图
轨道综合分析图
查看轨道综合分析图
交会数据列表
事件ID 空间交会对象 最接近时刻(TCA) 交会距离 交会风险概率(CRP) 交会风险指数(CRI) 操作
CDM_260906-011204-097506-341421
2026-09-06T
01:12:16+0000
2.235 km
极远距离
1.940418E-6 低风险 0.41
CDM_260901-170105-696406-341421
AFR-1 (56964)
2026-09-01T
17:01:07+0000
2.574 km
极远距离
1.636197E-6 低风险 0.39